JA0BES-13 Weather Reports


time (UTC)temp
C
wind
direction
speed
KPH
gust
KPH
rain 1hr
cm
rain 24hr
cm
rain mn
cm
humidity
%
barometer
mb
20260505120522 14 225 1.6 1.6 0.00 0.00 0.00 55 1018.2
20260505115522 15 270 0.0 0.0 0.00 0.00 0.00 55 1018.1
20260505114521 15 270 0.0 0.0 0.00 0.00 0.00 55 1017.9
20260505113521 15 270 0.0 1.6 0.00 0.00 0.00 55 1017.7
20260505112520 15 225 0.0 1.6 0.00 0.00 0.00 57 1017.8
20260505111520 16 270 0.0 0.0 0.00 0.00 0.00 55 1017.7
20260505110520 16 180 0.0 1.6 0.00 0.00 0.00 53 1017.2
20260505101516 17 180 0.0 0.0 0.00 0.00 0.00 50 1016.9
20260505100516 18 180 0.0 0.0 0.00 0.00 0.00 49 1016.5
20260505095515 18 180 0.0 0.0 0.00 0.00 0.00 48 1016.3
20260505094515 18 180 0.0 0.0 0.00 0.00 0.00 47 1016.2
20260505093515 18 225 0.0 0.0 0.00 0.00 0.00 45 1016.1
20260505092514 19 225 0.0 1.6 0.00 0.00 0.00 44 1016.0
20260505091514 19 180 0.0 1.6 0.00 0.00 0.00 43 1015.9
20260505090513 20 184 0.0 0.0 0.00 0.00 0.00 42 1015.8
20260505085513 20 189 0.0 0.0 0.00 0.00 0.00 41 1015.8
20260505084513 21 146 0.0 0.0 0.00 0.00 0.00 40 1015.6
20260505083513 21 180 0.0 3.2 0.00 0.00 0.00 38 1015.7
20260505082512 21 141 0.0 3.2 0.00 0.00 0.00 37 1015.5
20260505081512 21 180 0.0 3.2 0.00 0.00 0.00 36 1015.5
20260505080511 22 119 1.6 3.2 0.00 0.00 0.00 34 1015.4
20260505075511 22 198 0.0 3.2 0.00 0.00 0.00 30 1015.3
20260505074511 22 225 0.0 3.2 0.00 0.00 0.00 31 1015.3
20260505073511 21 229 1.6 4.8 0.00 0.00 0.00 30 1015.3
20260505072510 21 265 1.6 6.4 0.00 0.00 0.00 29 1015.2
20260505071510 21 247 3.2 3.2 0.00 0.00 0.00 30 1015.2
20260505070509 21 225 0.0 3.2 0.00 0.00 0.00 31 1015.2
20260505065509 21 261 4.8 6.4 0.00 0.00 0.00 29 1015.2
20260505064508 21 225 0.0 3.2 0.00 0.00 0.00 30 1015.2
20260505063508 21 130 0.0 3.2 0.00 0.00 0.00 31 1015.5
20260505062508 21 225 0.0 3.2 0.00 0.00 0.00 30 1015.5
20260505061508 21 234 1.6 3.2 0.00 0.00 0.00 29 1015.6
20260505060507 21 234 1.6 4.8 0.00 0.00 0.00 31 1015.5
20260505055507 21 225 0.0 1.6 0.00 0.00 0.00 33 1015.7
20260505054506 21 204 0.0 1.6 0.00 0.00 0.00 35 1015.8
20260505053507 21 247 3.2 3.2 0.00 0.00 0.00 35 1015.8
20260505052506 21 225 1.6 3.2 0.00 0.00 0.00 35 1016.1
20260505051506 21 198 0.0 3.2 0.00 0.00 0.00 35 1016.3
20260505050505 20 270 0.0 3.2 0.00 0.00 0.00 38 1016.5
20260505041504 20 180 0.0 0.0 0.00 0.00 0.00 43 1017.3
20260505040503 20 225 0.0 1.6 0.00 0.00 0.00 43 1017.4
20260505035503 20 130 1.6 1.6 0.00 0.00 0.00 44 1017.5
20260505034502 19 225 0.0 1.6 0.00 0.00 0.00 45 1017.8
20260505033502 18 225 0.0 3.2 0.00 0.00 0.00 42 1017.9
20260505032502 18 167 0.0 1.6 0.00 0.00 0.00 44 1017.9
20260505031501 17 195 0.0 3.2 0.00 0.00 0.00 44 1017.9
20260505030501 17 99 4.8 4.8 0.00 0.00 0.00 42 1017.9
20260505025501 17 225 1.6 6.4 0.00 0.00 0.00 41 1018.1
20260505024500 17 243 3.2 3.2 0.00 0.00 0.00 43 1018.4
20260505023500 17 225 0.0 3.2 0.00 0.00 0.00 46 1018.3
20260505022459 16 225 0.0 3.2 0.00 0.00 0.00 45 1018.5
20260505021459 16 211 0.0 1.6 0.00 0.00 0.00 45 1018.6
20260505020459 16 216 0.0 3.2 0.00 0.00 0.00 45 1018.7
20260505015459 16 175 0.0 3.2 0.00 0.00 0.00 47 1018.8
20260505014458 15 126 1.6 4.8 0.00 0.00 0.00 46 1018.4
20260505013458 15 225 0.0 4.8 0.00 0.00 0.00 48 1018.4
20260505012457 14 185 0.0 1.6 0.00 0.00 0.00 50 1018.7
20260505011457 13 87 1.6 4.8 0.00 0.00 0.00 52 1018.8
20260505010457 13 225 0.0 4.8 0.00 0.00 0.00 54 1018.8
20260505005457 13 252 3.2 3.2 0.00 0.00 0.00 60 1018.9
20260505004456 12 245 1.6 3.2 0.00 0.00 0.00 59 1018.9
20260505003456 12 236 1.6 4.8 0.00 0.00 0.00 60 1018.8
20260505002455 12 211 0.0 4.8 0.00 0.00 0.00 62 1018.6
20260505001455 12 238 1.6 4.8 0.00 0.00 0.00 63 1018.8
20260505000455 11 225 3.2 4.8 0.00 0.00 0.00 63 1018.7
20260504235454 11 220 3.2 6.4 0.00 0.00 0.00 67 1018.7
20260504234454 11 270 4.8 6.4 0.00 0.00 0.00 69 1018.6
20260504233454 11 225 1.6 4.8 0.00 0.00 0.00 74 1018.7
20260504232453 10 229 1.6 4.8 0.00 0.00 0.00 77 1018.9
20260504231453 10 218 0.0 4.8 0.00 0.00 0.00 77 1018.7
20260504230453 10 211 1.6 1.6 0.00 0.00 0.00 81 1018.5
20260504225452 10 235 1.6 3.2 0.00 0.00 0.00 85 1018.3
20260504224452 9 265 3.2 4.8 0.00 0.00 0.00 86 1018.4
20260504223452 8 225 1.6 3.2 0.00 0.00 0.00 88 1018.4
20260504222451 8 189 1.6 1.6 0.00 0.00 0.00 90 1018.4
20260504221451 8 225 1.6 3.2 0.00 0.00 0.00 91 1018.2
20260504220450 8 225 1.6 1.6 0.00 0.00 0.00 90 1018.2
20260504215450 8 218 0.0 3.2 0.00 0.00 0.00 90 1018.0
20260504214450 8 225 0.0 3.2 0.00 0.00 0.00 90 1017.9
20260504213450 7 225 0.0 1.6 0.00 0.00 0.00 92 1017.9
20260504212449 7 225 0.0 0.0 0.00 0.00 0.00 92 1017.6
20260504211449 7 225 0.0 0.0 0.00 0.00 0.00 94 1017.3
20260504210448 6 180 0.0 0.0 0.00 0.00 0.00 94 1017.1